Theta_e
350 350 347 347 349 349 350 349 349 348 347 346 345 344 344 345 344 345 346 346 345 349 350 348 348 347 347 348 346 346 346 346 345 345 345 345 344 344 344 344 343 342 342 340 338 337 337 337 336 336 337 339 341 345 346 344 343 342 341 340 340 340
345 346 348 349 350 347 350 349 350 349 349 347 345 346 347 347 346 350 346 347 349 349 349 349 348 346 347 348 347 346 346 345 345 345 345 344 344 344 344 344 343 342 341 339 337 342 341 336 334 334 335 335 343 344 345 344 344 342 341 342 341 341
345 344 346 346 349 350 349 349 349 349 348 346 347 349 350 348 348 348 348 347 347 348 348 347 348 347 347 345 347 346 345 345 345 344 344 344 343 343 343 343 341 339 338 337 341 340 338 336 337 334 335 339 343 344 344 344 344 344 341 342 341 340
342 344 344 346 349 347 348 349 348 347 347 347 347 347 346 347 348 348 347 347 347 348 347 348 344 345 346 348 348 345 344 345 344 344 343 344 344 344 343 341 339 338 338 342 340 338 336 335 337 337 337 336 338 343 344 344 342 343 343 340 339 338
343 344 345 345 345 346 346 346 346 346 345 345 344 344 346 345 346 346 347 347 347 347 346 347 349 347 348 347 347 347 347 346 344 345 344 343 343 343 342 342 342 339 341 340 338 337 338 336 338 337 337 336 337 341 345 344 342 341 343 343 343 338
343 343 345 345 344 344 345 343 343 343 343 343 343 343 344 345 345 345 346 346 346 345 345 345 347 346 344 345 345 346 344 345 344 343 344 342 341 342 341 341 340 339 339 339 338 338 338 337 336 336 336 337 336 338 344 343 343 342 343 343 345 338
342 343 343 344 345 344 343 343 343 343 341 342 343 342 342 343 344 345 346 346 344 344 344 344 344 344 343 344 344 345 343 342 341 342 343 341 341 341 341 339 339 340 339 338 336 337 337 337 336 333 335 335 336 337 342 344 343 343 343 343 342 338
342 342 343 344 343 343 342 342 343 343 342 342 342 342 342 343 343 344 345 345 345 345 343 342 343 342 341 342 342 342 342 340 341 341 343 342 340 339 340 342 341 340 338 337 335 337 336 335 334 335 334 336 336 338 341 343 344 344 344 345 344 340
342 342 343 343 342 342 341 342 343 342 341 342 342 342 341 342 342 343 344 345 345 343 343 343 342 339 336 338 340 342 341 340 340 341 341 339 341 340 342 341 341 340 340 338 337 337 336 334 334 335 333 334 335 336 339 342 343 342 342 344 344 342
342 341 342 342 341 341 341 341 341 341 341 342 341 340 340 341 342 342 343 343 343 343 343 342 341 339 338 336 337 338 341 341 340 341 340 340 341 342 343 342 341 340 336 337 336 337 336 334 331 334 333 334 335 335 338 339 341 340 341 342 344 343
340 342 341 340 341 340 341 340 339 340 341 341 340 339 339 340 340 341 341 342 341 341 343 342 340 341 341 338 336 338 342 342 341 341 341 340 341 342 342 341 342 342 339 339 336 337 335 335 333 331 333 331 333 336 336 339 339 341 341 342 343 344
341 342 341 338 340 339 339 339 339 340 341 340 340 340 339 339 339 340 340 340 340 341 339 337 337 335 338 335 337 339 340 341 341 340 340 341 341 340 340 337 339 339 339 340 338 338 338 335 333 331 332 331 332 334 335 338 337 339 341 343 342 343
342 343 341 340 339 339 340 339 339 339 340 339 339 338 337 338 337 338 340 339 339 338 335 337 336 334 333 333 333 334 338 339 339 339 339 339 339 338 340 339 339 339 338 338 338 337 335 337 334 333 334 332 333 331 334 335 338 340 341 342 342 342
342 341 341 340 340 339 340 339 339 340 340 339 338 338 338 338 337 338 339 338 338 335 335 337 335 332 332 333 334 335 337 337 338 338 338 338 338 339 339 338 338 338 336 336 335 335 334 333 332 333 335 335 336 337 335 334 338 340 342 342 342 343
342 342 342 340 339 339 340 339 339 339 339 338 338 338 337 335 336 338 338 337 336 335 335 335 335 334 336 336 334 335 336 337 337 337 337 337 337 337 337 337 337 337 338 336 335 334 333 333 332 332 334 337 335 334 336 336 337 338 339 343 344 343
342 341 342 340 339 340 339 339 339 339 338 338 337 337 337 336 337 338 337 336 336 336 336 336 336 336 334 334 333 334 334 335 335 336 337 336 336 336 336 335 335 337 337 335 334 333 333 332 333 333 335 337 337 337 336 336 337 337 338 340 340 343
341 341 340 339 338 338 338 338 338 338 338 338 338 337 337 337 337 337 338 338 337 337 336 336 336 335 334 333 333 333 335 334 334 335 335 335 335 334 334 334 334 335 336 335 333 331 332 332 332 333 334 334 335 336 336 336 336 337 337 339 340 340
341 340 339 338 337 337 337 337 337 337 338 338 338 338 338 338 338 337 338 337 337 337 336 335 335 335 335 334 334 335 335 335 334 334 333 333 334 334 333 333 333 334 334 334 334 332 331 332 330 331 332 332 334 334 334 335 336 335 336 337 339 339
339 338 337 336 336 334 334 335 335 336 336 337 338 338 339 339 338 338 337 336 335 336 335 335 335 335 336 335 334 334 333 332 332 334 332 332 332 333 332 332 333 333 333 333 333 333 334 334 332 331 330 331 331 332 334 333 335 335 335 337 337 337
337 336 335 334 334 333 333 333 332 334 335 335 336 336 338 337 338 336 336 336 335 335 335 335 334 335 335 334 333 332 332 332 332 332 331 331 331 332 330 330 330 332 333 330 329 329 329 331 333 332 332 333 333 334 333 334 333 332 334 335 336 337
335 335 335 333 332 332 332 331 333 332 331 333 334 336 335 335 336 336 336 335 335 335 334 334 334 334 334 334 332 331 331 331 331 331 330 330 331 330 330 330 330 330 331 330 327 329 330 331 330 328 330 329 331 335 336 335 331 332 332 334 335 334
335 335 335 334 333 334 334 334 334 333 332 331 333 333 331 331 331 331 334 336 337 336 335 336 334 333 333 333 332 331 331 330 330 330 331 331 331 330 329 330 330 329 331 332 328 327 330 329 326 326 325 325 327 331 335 334 330 330 332 332 334 335
335 335 335 335 336 334 334 335 335 333 332 328 327 329 327 328 329 327 330 330 333 335 335 335 334 333 332 331 330 331 331 331 330 331 330 330 331 330 329 329 329 328 328 332 331 329 329 331 326 327 328 324 322 322 328 330 332 332 332 333 332 331
335 335 334 335 334 333 332 332 331 331 330 330 326 326 327 328 328 328 327 329 329 331 333 335 334 333 332 331 333 333 331 330 330 331 330 329 329 328 330 330 330 329 328 326 328 328 329 329 329 326 320 320 322 320 318 323 327 330 333 332 332 330
336 335 335 334 332 331 329 329 328 329 328 327 327 327 326 325 328 327 326 328 327 329 331 334 336 335 333 332 332 333 331 330 329 329 330 330 329 329 329 329 329 329 328 327 326 329 328 329 328 330 328 322 320 319 319 323 324 327 330 329 330 330
324 331 333 331 330 329 329 329 328 327 325 325 323 324 323 323 323 325 324 326 326 327 330 332 334 334 333 333 332 330 330 330 330 330 330 329 329 328 328 328 329 329 328 328 328 328 325 327 329 329 329 328 326 319 320 323 323 319 328 329 330 330
320 322 324 326 327 327 328 330 331 330 328 327 324 324 324 326 325 323 325 325 324 326 326 331 331 332 333 333 332 331 332 332 332 331 330 330 329 329 328 328 329 329 329 329 328 325 325 325 327 327 327 327 328 327 327 323 319 323 321 326 329 330
321 321 321 322 324 327 328 330 330 329 328 327 325 323 325 325 326 324 322 323 324 325 325 327 328 328 329 330 330 329 329 329 328 327 328 329 330 329 329 328 327 328 329 329 331 328 326 328 323 324 326 326 326 327 327 324 323 322 321 319 321 326
322 322 321 322 322 324 327 328 328 327 324 324 326 325 325 325 323 324 322 322 324 323 324 325 325 326 327 327 327 326 326 327 327 327 325 324 324 325 328 330 329 328 328 327 328 327 326 324 325 323 325 327 325 324 324 324 324 326 323 321 318 320
324 324 321 321 322 323 324 324 325 326 324 323 324 324 324 323 322 323 322 322 323 323 323 324 324 325 325 324 325 325 325 325 326 325 323 324 325 326 326 327 327 328 327 327 326 326 325 324 325 326 326 325 324 323 323 323 322 322 321 322 316 314
323 323 321 321 320 321 322 323 324 325 325 324 325 324 322 322 321 322 321 321 322 322 323 323 324 324 325 325 326 326 326 325 326 326 323 322 324 323 324 324 323 324 324 325 326 326 323 323 324 324 323 322 319 320 320 318 320 322 320 316 315 314
322 322 321 321 321 321 320 322 323 325 326 325 325 324 323 322 323 322 321 320 320 321 321 322 324 323 324 325 325 325 325 325 324 325 323 324 323 322 322 322 322 323 323 323 324 324 323 321 321 320 320 319 318 319 318 317 317 322 322 319 318 315
321 321 321 321 321 321 321 321 321 323 325 326 326 326 325 324 324 322 322 320 320 319 320 320 321 322 323 324 325 324 324 323 323 324 324 322 322 323 323 323 322 322 322 321 321 323 319 321 323 319 317 320 318 316 316 317 318 318 321 321 319 314
323 322 321 320 320 320 321 322 322 323 323 324 325 326 325 324 324 324 322 321 320 320 319 321 321 323 322 323 323 325 326 325 324 323 323 323 323 322 323 319 321 321 321 321 322 322 320 320 320 320 321 317 317 316 317 318 318 317 317 318 316 315
322 322 321 320 320 320 320 321 321 322 322 324 324 323 323 324 323 322 322 322 322 322 320 321 321 322 322 323 324 324 325 325 323 323 323 323 322 322 323 320 320 321 321 321 321 320 319 320 319 319 320 318 317 316 316 315 316 316 315 317 317 316
323 322 321 320 320 320 320 320 322 321 322 323 323 324 322 321 321 321 320 320 320 322 322 321 322 322 323 323 324 324 324 324 323 323 324 323 322 320 321 321 319 320 318 318 320 319 318 319 319 319 318 318 316 314 316 315 315 316 315 317 317 318
323 323 323 322 321 321 321 321 321 322 322 322 322 322 322 322 320 319 317 317 320 322 323 323 322 323 323 323 324 324 323 323 323 324 324 323 322 320 320 320 319 319 318 319 319 318 318 316 317 318 317 318 315 315 315 317 316 316 317 317 316 316
Wind_Speed
7 7 8 8 8 10 10 14 13 14 14 13 14 15 13 13 11 12 12 9 6 7 7 8 8 8 10 8 7 8 9 9 9 9 9 9 8 9 10 9 9 8 9 8 6 6 6 7 6 6 5 3 2 3 2 3 3 2 2 3 3 3
7 7 7 7 5 7 9 11 11 12 11 11 11 12 11 9 10 7 9 7 6 6 6 6 6 7 6 8 8 7 8 8 8 8 8 8 8 8 8 9 10 10 8 6 2 1 3 4 4 6 5 2 2 1 3 3 3 3 3 2 3 5
8 6 6 5 4 6 8 8 10 10 10 10 10 9 7 8 7 7 7 6 5 5 5 5 5 5 5 6 8 7 8 8 8 8 7 8 7 7 7 10 11 8 7 3 1 2 2 2 3 2 2 0 1 1 2 3 4 3 3 2 2 7
6 8 6 5 6 6 7 8 8 8 8 8 7 6 7 7 6 6 6 6 5 5 5 4 7 9 7 5 6 6 7 9 9 8 6 6 7 8 9 11 9 5 2 1 1 1 1 2 2 2 2 1 0 0 2 3 3 3 2 4 2 7
7 8 9 7 7 6 6 7 7 6 7 7 7 7 6 6 6 7 6 5 5 5 5 4 4 4 3 4 4 3 3 3 4 5 4 4 3 4 2 3 3 2 1 1 1 2 1 2 2 1 1 1 0 0 2 2 3 3 3 2 3 6
8 8 7 7 7 7 7 7 7 7 7 6 7 6 6 5 5 6 5 5 5 5 5 4 5 4 4 3 3 3 3 3 3 3 3 3 3 2 2 1 1 1 1 1 2 2 2 2 2 1 1 1 1 1 2 2 3 3 3 2 4 6
8 7 7 8 7 7 6 6 6 6 6 5 5 5 5 5 5 5 5 5 5 5 4 4 4 4 4 3 3 2 3 3 3 2 1 2 3 2 1 2 2 2 1 1 2 3 2 2 1 1 2 2 2 3 2 3 3 3 3 3 4 8
9 8 7 7 7 7 6 7 6 7 5 6 5 5 5 5 5 5 5 4 4 4 4 4 4 4 4 3 3 4 3 4 3 3 1 1 3 3 2 1 1 1 1 1 2 2 2 2 1 1 2 2 3 3 3 3 2 2 3 3 3 7
10 10 8 7 7 6 7 7 7 6 6 6 5 5 5 5 5 4 5 4 4 3 3 3 4 4 1 3 3 2 3 3 3 3 3 3 2 3 3 2 1 0 1 1 2 2 1 2 1 1 1 3 3 3 3 3 2 3 3 2 3 5
10 10 9 8 7 7 7 7 6 6 6 6 5 4 5 5 4 4 4 3 3 2 3 3 4 5 6 5 4 4 4 4 4 4 4 4 3 2 3 2 1 2 1 0 1 1 0 1 2 1 1 2 3 3 3 3 3 3 3 2 2 4
9 8 8 8 7 7 7 7 7 6 6 5 5 5 5 5 4 4 3 3 3 2 2 4 4 4 4 4 4 4 4 3 3 3 4 3 2 1 2 1 1 1 1 2 2 1 1 1 1 1 1 2 2 2 3 3 4 4 4 3 3 3
8 8 7 7 7 7 7 7 7 6 5 5 6 5 4 3 3 2 4 3 3 3 3 2 2 1 1 0 2 3 2 3 3 2 2 2 2 1 1 1 2 1 1 0 2 2 1 1 1 1 1 1 2 3 3 3 3 4 3 3 2 3
8 9 9 8 8 7 7 7 7 6 5 5 5 4 4 4 3 2 2 3 3 3 2 1 2 2 1 2 2 4 4 3 2 2 2 2 2 1 1 1 1 1 2 2 3 2 1 1 1 1 0 1 1 3 2 3 3 3 4 4 3 3
8 9 9 8 8 7 7 6 6 6 5 5 5 4 3 3 3 3 3 3 4 2 2 2 2 3 3 3 3 4 4 3 3 2 2 2 2 1 1 1 1 1 2 2 2 1 1 2 1 1 0 1 1 0 1 2 1 1 2 3 3 3
8 8 8 8 8 7 7 6 6 6 5 5 5 4 3 3 3 3 3 3 4 3 3 2 4 4 4 4 3 3 3 2 3 3 2 2 1 1 1 1 1 2 1 1 2 0 1 1 1 1 1 1 1 0 1 2 2 2 2 2 2 3
9 9 8 8 7 7 7 6 6 6 5 5 4 4 4 4 3 3 4 2 2 2 3 3 2 2 2 1 2 3 2 2 3 3 3 2 1 1 1 1 1 2 1 1 2 1 1 1 1 1 1 0 1 1 1 1 1 2 2 2 3 2
10 9 8 8 8 7 7 7 6 5 5 5 5 4 4 4 4 4 3 3 3 2 3 2 2 3 2 2 2 2 3 3 3 3 3 2 1 1 1 2 1 1 1 0 1 1 0 1 1 1 1 1 1 1 1 1 0 1 1 2 2 3
8 8 7 8 8 7 6 6 5 5 5 5 5 4 4 4 4 3 3 2 3 2 2 2 1 2 2 1 1 2 3 3 3 3 3 2 1 1 1 2 2 1 1 1 0 1 1 1 1 1 1 1 2 1 2 2 2 1 1 2 2 2
7 8 8 8 8 7 7 5 5 6 6 6 5 4 4 4 4 3 3 3 3 2 2 3 2 0 0 2 2 3 3 4 2 2 2 2 1 2 2 0 1 2 3 3 2 1 1 0 0 1 1 2 1 2 2 2 2 2 1 1 1 2
6 8 8 8 7 6 5 6 6 6 6 5 5 5 4 4 4 4 3 3 3 2 2 3 3 3 2 2 2 2 3 3 2 2 1 1 2 1 2 2 1 2 3 5 1 1 2 1 2 2 1 1 1 1 1 2 2 2 2 2 1 1
7 8 8 7 6 6 6 6 4 5 6 5 5 5 5 4 3 3 3 3 3 2 3 3 3 3 3 3 3 3 3 2 2 2 2 1 2 2 1 1 1 1 2 3 2 2 2 1 2 3 1 2 2 0 0 1 1 1 1 2 1 2
7 8 8 8 6 6 4 2 3 3 4 3 5 6 5 3 3 3 2 2 2 2 2 2 3 3 3 3 3 3 3 3 2 2 2 2 4 3 3 2 2 2 1 2 3 2 1 3 4 5 3 3 3 2 1 1 1 1 1 0 1 1
7 8 7 8 8 5 2 2 2 4 4 4 4 3 4 3 3 4 3 3 2 2 3 3 3 3 3 3 3 3 3 4 3 3 2 2 2 4 3 3 2 1 2 2 1 1 3 4 4 2 2 2 4 4 3 3 3 2 1 2 1 2
8 8 7 7 6 6 6 6 6 5 4 3 5 5 5 4 4 5 4 3 3 2 2 3 4 3 3 3 2 2 3 3 3 2 2 2 2 2 2 3 3 3 1 3 3 2 3 1 2 3 4 5 1 3 4 5 4 2 1 1 1 2
8 8 7 7 8 8 8 7 6 6 6 7 5 5 6 5 4 4 3 3 3 2 1 3 3 3 3 3 2 2 2 3 3 2 2 2 3 3 3 3 2 2 3 2 4 3 3 2 2 3 2 2 3 4 2 2 1 2 1 2 1 0
12 4 5 6 8 8 7 8 8 7 6 5 5 5 5 5 5 4 3 2 3 2 2 3 2 3 2 2 2 2 2 2 2 2 1 2 3 3 3 3 2 2 3 0 1 4 3 3 1 2 2 3 4 3 3 1 3 2 2 3 2 2
10 3 5 4 5 6 6 7 8 7 6 6 6 3 2 3 5 3 3 3 3 2 2 3 3 2 2 2 3 2 2 1 1 1 1 1 3 3 2 2 2 1 3 2 2 2 3 3 3 2 2 3 3 2 2 1 1 0 3 3 4 3
10 7 5 3 1 4 7 7 6 5 4 5 5 5 5 4 4 5 4 3 3 3 3 3 3 3 3 3 3 3 3 2 2 2 2 2 2 2 2 2 1 1 1 1 1 1 1 1 3 2 1 1 2 3 5 3 2 2 2 3 4 5
7 7 6 4 4 4 3 6 6 6 5 3 5 5 5 5 5 4 6 3 3 3 3 3 3 4 4 4 4 4 3 3 3 3 2 3 3 2 3 3 3 3 3 2 3 2 2 3 2 2 3 2 2 0 3 3 3 1 1 3 3 2
8 6 6 6 4 3 2 4 6 7 8 6 5 5 5 6 5 4 6 4 4 3 3 3 3 4 4 4 4 4 4 4 3 3 3 4 3 3 3 4 3 3 2 2 2 2 2 2 2 2 1 1 1 3 3 3 2 4 4 3 4 4
8 6 6 6 6 6 5 5 7 8 9 9 8 7 7 6 5 5 6 5 4 3 2 3 3 3 4 4 4 4 4 4 3 3 3 4 4 4 4 4 3 4 3 3 2 3 4 3 2 2 2 2 3 2 3 3 2 2 3 5 7 6
8 8 6 6 7 6 6 6 6 8 9 9 9 7 8 8 7 7 6 6 4 4 3 3 3 4 3 3 3 4 4 4 4 4 4 3 3 3 3 3 3 3 3 3 3 3 3 3 3 4 4 3 4 3 3 3 3 1 3 5 6 7
7 6 7 8 8 8 7 7 7 6 6 6 7 7 7 7 7 7 5 6 5 5 4 4 3 4 3 3 3 4 4 4 4 4 3 4 3 3 2 3 3 4 4 4 3 3 4 4 3 4 4 3 3 4 4 2 2 2 2 3 6 7
8 8 6 7 8 8 7 6 7 6 6 6 6 6 6 6 5 5 5 5 6 6 5 4 4 4 3 3 2 3 4 4 4 4 3 4 3 3 3 3 3 4 4 3 3 5 5 4 4 4 2 4 5 5 4 3 3 2 2 4 5 7
6 6 8 8 6 7 6 5 6 6 6 6 6 6 5 5 5 5 4 5 4 4 5 4 4 3 3 3 3 3 3 5 4 4 4 3 3 3 4 4 4 4 4 3 3 3 4 4 4 4 5 5 5 5 4 4 4 4 2 1 3 6
10 9 8 7 6 6 6 5 6 7 7 6 5 5 4 4 3 4 5 6 5 4 4 4 3 4 3 3 3 4 4 4 4 5 4 4 4 4 4 4 4 4 4 3 3 5 3 4 4 5 5 4 5 5 4 4 5 4 4 3 3 3
7 5 6 8 8 7 6 7 6 5 6 7 7 8 7 8 6 4 6 5 5 5 5 4 4 3 4 3 3 3 4 4 3 3 4 4 4 4 4 4 4 4 4 3 4 4 3 4 3 3 4 4 5 4 4 4 4 4 4 4 4 2
Wind_Direction
118 117 128 132 130 127 130 131 128 117 114 114 115 127 139 141 137 144 149 134 126 144 138 137 145 143 141 140 123 124 131 127 122 117 115 109 101 100 102 99 97 91 80 70 69 70 52 37 29 22 31 36 117 191 179 181 172 168 178 145 167 126
115 129 128 125 125 135 142 139 131 128 124 119 122 130 135 134 140 138 136 141 144 140 141 140 139 137 138 135 136 123 127 125 120 117 110 106 102 100 97 95 84 74 73 74 80 91 87 84 42 10 22 20 218 149 162 181 188 182 171 168 174 110
105 97 101 113 123 132 136 132 129 126 123 116 124 127 125 129 131 140 149 145 142 143 140 138 137 136 131 125 120 126 129 126 126 120 114 111 110 104 96 84 74 68 58 44 183 79 62 46 60 33 347 358 59 157 156 180 194 202 184 147 194 114
130 140 142 149 141 138 137 135 131 128 125 120 119 119 125 129 137 142 146 148 149 145 142 136 129 133 128 130 114 111 122 131 130 127 126 134 117 88 93 88 79 65 69 49 73 83 68 69 61 40 35 1 56 77 192 187 204 202 199 154 171 132
152 157 155 148 141 136 137 133 124 120 126 128 127 126 130 135 143 146 150 154 152 148 150 142 131 125 111 119 116 118 131 136 136 122 122 118 117 104 102 84 107 106 94 135 100 81 43 70 63 70 80 35 55 153 199 198 213 215 199 171 142 149
159 157 157 142 144 142 138 136 134 131 127 125 128 131 133 138 149 158 161 157 149 148 151 148 131 115 116 118 126 114 130 111 107 109 121 111 107 103 97 87 88 106 138 148 115 92 78 38 47 70 97 128 155 184 204 191 197 212 216 193 142 162
157 153 159 147 148 145 148 139 137 140 138 131 132 133 136 146 157 164 166 164 163 159 153 153 139 127 122 125 140 154 131 121 125 125 111 126 117 114 126 140 149 148 159 153 135 119 110 85 29 62 136 165 169 178 198 189 190 203 206 196 147 163
156 156 152 157 149 146 152 150 145 142 141 143 147 154 157 160 158 166 173 178 177 167 160 157 144 131 124 135 163 171 143 139 139 146 150 161 148 143 159 166 144 153 163 149 149 133 91 85 84 50 154 168 169 180 191 184 190 213 207 198 174 162
157 156 159 160 152 154 160 159 156 152 156 158 161 161 162 158 164 174 187 187 180 170 165 154 142 113 110 152 159 161 158 156 159 165 175 185 188 165 160 138 118 358 158 176 168 147 104 89 96 109 155 161 178 174 181 185 183 196 223 204 195 143
162 159 158 164 157 158 171 168 155 159 162 165 166 161 161 170 177 187 189 197 171 171 171 162 153 155 164 189 171 200 194 173 176 175 185 195 194 185 151 144 106 283 20 213 183 105 210 132 113 110 160 170 173 174 171 193 188 200 201 211 178 138
162 159 160 164 159 162 172 166 163 167 167 168 166 161 170 173 172 179 188 178 159 162 172 183 162 151 159 170 185 206 207 183 179 189 197 197 202 191 137 142 169 136 72 8 333 339 275 156 95 104 130 187 172 177 183 190 198 197 201 193 187 174
160 155 157 163 165 164 172 166 165 165 168 172 168 169 159 154 160 189 159 161 162 154 184 173 125 55 315 175 205 207 198 222 193 173 195 193 197 180 174 152 127 146 119 134 288 275 265 232 140 87 174 155 169 194 190 193 201 192 201 192 191 174
165 164 162 168 166 167 171 167 168 166 168 171 168 151 160 157 149 209 170 163 164 133 186 183 128 88 209 209 203 218 207 200 190 179 170 162 146 138 168 203 159 142 165 173 229 240 244 221 173 148 224 140 193 199 196 201 199 196 200 196 194 184
175 174 167 167 162 165 169 163 167 169 167 161 159 157 154 165 170 203 186 171 150 150 225 216 139 181 184 201 193 203 187 182 181 165 157 154 166 183 209 229 220 218 202 214 209 227 241 232 200 165 120 348 277 305 217 213 222 218 213 209 192 183
175 177 170 167 165 161 157 158 164 170 160 160 158 159 153 149 170 177 164 151 149 170 249 243 159 195 202 175 195 168 172 174 173 167 154 141 157 163 232 252 241 242 212 237 246 190 296 279 251 211 72 337 332 324 230 219 194 211 219 216 215 192
176 177 171 162 154 150 151 156 159 154 152 146 140 135 136 146 159 157 145 131 165 185 189 191 153 151 145 126 147 151 135 145 146 144 146 132 158 174 187 234 229 253 232 217 240 202 186 215 221 191 110 29 10 333 296 237 233 232 205 215 215 205
173 175 161 148 137 138 140 146 141 142 134 135 135 134 138 144 146 147 142 150 152 172 175 194 164 154 137 124 122 125 135 132 127 124 124 132 148 111 216 244 218 296 306 324 268 296 175 204 180 179 176 140 60 356 348 354 326 277 225 232 221 206
169 161 140 134 135 132 131 125 125 126 133 133 130 133 136 142 135 133 131 121 132 142 138 164 203 178 180 162 144 122 124 118 123 126 124 139 141 142 178 243 220 174 62 34 231 243 225 150 182 182 189 113 70 37 27 12 14 359 251 239 235 240
146 131 126 127 121 112 110 103 110 128 133 133 131 120 128 121 109 109 96 111 123 113 108 123 128 146 56 122 133 113 96 75 80 105 108 118 127 135 118 344 273 142 112 52 356 285 274 46 202 169 155 103 94 68 29 21 18 38 37 329 295 262
131 127 128 125 122 119 125 139 140 138 133 130 126 120 105 100 104 96 95 107 114 109 107 119 127 124 103 91 90 81 92 101 102 91 73 212 171 193 231 221 236 250 151 107 350 238 66 200 155 159 145 143 125 349 5 349 2 48 57 74 65 251
133 138 140 134 135 142 150 147 144 144 136 135 126 119 110 107 96 95 111 113 122 109 109 115 113 112 106 98 88 89 94 97 104 121 131 109 99 112 209 238 179 192 205 151 232 257 147 218 186 181 189 211 217 274 347 332 323 326 60 50 86 82
142 150 148 144 145 161 173 155 140 125 114 116 132 139 127 108 102 96 100 120 132 127 134 113 111 113 110 107 111 113 115 119 123 127 124 130 131 145 144 141 137 143 181 201 211 243 172 213 205 217 196 210 231 235 242 230 226 224 306 185 328 6
156 156 151 149 159 159 132 85 70 109 113 103 51 69 97 102 112 105 86 81 86 126 146 132 133 129 121 108 108 112 112 114 115 110 110 109 139 128 121 117 146 147 159 129 151 138 200 229 237 213 221 231 221 223 189 217 198 190 282 275 272 243
160 153 152 158 129 100 82 70 64 86 84 106 127 121 109 110 102 102 89 71 70 80 136 135 143 142 129 117 110 104 106 108 108 103 92 89 89 94 149 151 157 137 124 154 191 159 148 186 264 189 219 237 260 255 243 206 219 191 299 283 294 277
159 153 162 148 130 117 109 106 107 106 110 108 126 130 116 96 92 96 108 84 60 58 113 120 129 126 122 120 108 87 88 92 97 104 102 92 90 74 74 65 80 164 183 201 178 166 133 133 164 237 292 194 203 227 249 57 241 208 233 205 136 290
13 1 148 145 128 125 133 142 146 147 149 148 140 148 138 126 127 119 95 77 77 55 82 102 109 115 107 115 101 94 91 108 116 118 107 77 86 106 93 91 90 69 105 192 207 165 144 93 49 46 323 321 352 330 349 86 246 182 133 55 23 60
162 222 1 25 103 112 134 159 164 161 156 153 140 105 83 100 113 105 102 92 85 74 61 102 99 94 101 93 101 107 111 94 77 89 99 113 88 81 97 80 105 110 83 109 149 118 149 153 137 104 58 34 37 43 35 324 262 223 196 112 59 49
168 118 94 82 101 153 157 166 157 139 136 142 141 135 134 116 107 116 110 100 102 90 79 79 100 97 96 96 89 90 88 85 80 72 71 64 69 95 124 119 88 24 360 30 34 37 93 187 232 135 69 54 46 19 44 63 337 279 326 183 122 95
99 97 111 136 180 204 187 151 143 137 124 114 118 122 122 121 119 118 111 103 91 88 79 66 72 93 88 87 83 84 84 79 66 66 65 78 65 51 46 74 91 86 72 61 43 46 65 93 153 151 190 191 171 74 109 132 180 125 162 128 105 113
145 139 141 147 177 182 153 122 136 145 142 143 134 127 131 125 125 128 112 102 97 92 89 89 74 69 81 78 77 79 79 72 68 61 53 60 73 73 61 64 59 70 80 94 86 78 68 94 94 83 52 80 121 140 156 144 133 113 86 36 127 108
146 126 133 149 163 174 158 165 150 158 147 147 147 142 138 135 133 135 124 115 108 96 85 94 96 82 70 79 81 74 74 70 60 54 54 54 46 52 64 72 76 75 65 49 76 93 98 96 108 92 103 85 74 55 61 81 78 139 142 132 127 111
136 141 144 157 174 173 165 172 162 159 153 154 153 155 154 150 149 141 133 125 117 115 110 107 106 104 87 77 83 81 78 76 63 52 51 42 44 58 68 75 76 67 69 60 64 77 85 95 95 94 78 76 77 75 71 64 48 39 142 135 128 123
145 147 170 165 176 174 172 170 167 165 154 153 154 154 152 147 150 144 140 132 134 125 127 134 127 120 109 103 101 103 91 78 72 57 48 49 52 35 55 72 80 84 78 71 62 65 77 57 47 76 83 68 71 75 74 55 27 55 66 121 133 124
162 172 172 168 174 170 176 170 163 160 162 160 157 153 152 150 150 142 140 141 141 137 141 141 140 128 125 122 100 85 93 90 81 79 71 66 55 42 32 65 78 83 86 87 95 92 93 92 80 72 73 83 70 73 66 55 62 88 117 146 142 132
149 169 181 183 166 166 162 169 169 167 165 169 158 160 154 144 143 141 140 137 129 133 141 141 133 123 133 124 118 120 115 116 113 107 101 91 81 70 49 55 61 52 50 38 61 82 93 100 98 88 76 82 82 72 62 59 57 60 86 115 144 140
175 175 177 166 164 161 161 174 178 171 174 165 150 141 132 129 128 131 138 142 137 138 132 129 122 132 128 132 132 130 128 120 124 124 118 112 103 92 78 75 70 56 59 27 56 58 58 68 79 86 91 94 90 80 71 68 66 58 54 55 99 151
182 139 154 168 168 170 161 170 177 177 169 165 160 160 157 155 153 144 139 152 141 141 137 145 142 142 132 123 124 129 126 123 120 119 116 111 108 105 103 98 92 87 76 49 53 53 29 57 69 83 91 86 93 95 86 79 78 77 69 65 71 84